Tracking 18033 objects as of 23-March-2017
HD Live streaming from Space Station
objects crossing your sky now

BEESAT

Track BEESAT now!
10-day predictions
BEESAT is classified as:


NORAD ID: 35933
Int'l Code: 2009-051C
Perigee: 708.8 km
Apogee: 717.7 km
Inclination: 98.5 °
Period: 98.9 minutes
Semi major axis: 7084 km
RCS: 0.033 m2 (small)
Launch date: September 23, 2009
Source: Germany (GER)
Launch site: SIRHARIKOTA (SRI)
Uplink (MHz):
Downlink (MHz): 436.000
Beacon (MHz): 436.000
Mode: 9600/4800bps GMSK
Call sign: DP0BEE
Status: Active


BEESAT is a a cubesat satellite built by student teams to test new attitude control systems.
Your satellite tracking list
Your tracking list is empty





NASA's NSSDC Master Catalog

Two Line Element Set (TLE):
1 35933U 09051C   17080.92167915 +.00000166 +00000-0 +48536-4 0  9997
2 35933 098.4844 219.1916 0006312 162.2650 197.8768 14.56097365397646
Source of the keplerian elements: Caltech